contact:dominique.lefevre@mio.osupytheas.fr, maurice.libes@osupytheas.fr, didier.mallarino@osupytheas.fr
Project:EMSO http://www.emso-fr.org/EMSO-France
Depth: 2436.0 m
Title:EMSO Ligure Ouest : Data MII capteur CSTAR
DateTime,Latitude,Longitude,Instrument_Serial,Reference_Counts,Signal_Counts,Corrected_Signal_raw_counts,Calculated_Beam_c_inverse_meters,Internal_thermistor_counts
DateTime,Latitude,Longitude,Instrument_Serial,Reference_Counts,Signal_Counts,Corrected_Signal_raw_counts,Calculated_Beam_c_inverse_meters,Internal_thermistor_counts
2022-05-23T00:00:35,42.805,6.029,CST-1368DR,4736,5254,11826,01.112,551
2022-05-23T00:03:36,42.805,6.029,CST-1368DR,4736,5246,11810,01.117,551
2022-05-23T00:06:38,42.805,6.029,CST-1368DR,4736,5246,11810,01.117,551
2022-05-23T00:09:39,42.805,6.029,CST-1368DR,4736,5251,11819,01.114,551
2022-05-23T00:12:41,42.805,6.029,CST-1368DR,4736,5250,11817,01.115,551
2022-05-23T00:15:43,42.805,6.029,CST-1368DR,4736,5252,11822,01.113,551
2022-05-23T00:18:44,42.805,6.029,CST-1368DR,4737,5260,11838,01.108,551
2022-05-23T00:21:46,42.805,6.029,CST-1368DR,4736,5253,11824,01.113,551
2022-05-23T00:24:47,42.805,6.029,CST-1368DR,4736,5256,11830,01.111,551
2022-05-23T00:27:49,42.805,6.029,CST-1368DR,4736,5256,11832,01.110,550
2022-05-23T00:30:50,42.805,6.029,CST-1368DR,4736,5253,11824,01.113,551
2022-05-23T00:33:52,42.805,6.029,CST-1368DR,4736,5248,11814,01.116,551
2022-05-23T00:36:54,42.805,6.029,CST-1368DR,4736,5256,11830,01.111,551
2022-05-23T00:39:55,42.805,6.029,CST-1368DR,4736,5259,11837,01.108,551
2022-05-23T00:42:57,42.805,6.029,CST-1368DR,4736,5255,11828,01.111,551
2022-05-23T00:45:58,42.805,6.029,CST-1368DR,4736,5252,11823,01.113,551
2022-05-23T00:49:00,42.805,6.029,CST-1368DR,4736,5251,11820,01.114,551
2022-05-23T00:52:02,42.805,6.029,CST-1368DR,4736,5256,11832,01.110,551
2022-05-23T00:55:03,42.805,6.029,CST-1368DR,4736,5256,11832,01.110,551
2022-05-23T00:58:05,42.805,6.029,CST-1368DR,4736,5253,11825,01.112,551
2022-05-23T01:01:06,42.805,6.029,CST-1368DR,4736,5250,11818,01.115,551
2022-05-23T01:04:08,42.805,6.029,CST-1368DR,4736,5256,11832,01.110,551
2022-05-23T01:07:09,42.805,6.029,CST-1368DR,4736,5260,11841,01.107,551
2022-05-23T01:10:11,42.805,6.029,CST-1368DR,4736,5263,11846,01.105,551
2022-05-23T01:13:13,42.805,6.029,CST-1368DR,4736,5253,11824,01.113,551
2022-05-23T01:16:14,42.805,6.029,CST-1368DR,4736,5253,11825,01.112,551
2022-05-23T01:19:16,42.805,6.029,CST-1368DR,4736,5255,11829,01.111,551
2022-05-23T01:22:17,42.805,6.029,CST-1368DR,4736,5257,11834,01.109,551
2022-05-23T01:25:19,42.805,6.029,CST-1368DR,4736,5256,11830,01.111,551
2022-05-23T01:28:20,42.805,6.029,CST-1368DR,4736,5260,11841,01.107,551
2022-05-23T01:31:22,42.805,6.029,CST-1368DR,4736,5255,11828,01.111,551
2022-05-23T01:34:24,42.805,6.029,CST-1368DR,4736,5259,11838,01.108,551
2022-05-23T01:37:25,42.805,6.029,CST-1368DR,4736,5263,11848,01.105,551
2022-05-23T01:40:27,42.805,6.029,CST-1368DR,4736,5258,11835,01.109,551
2022-05-23T01:43:28,42.805,6.029,CST-1368DR,4736,5256,11832,01.110,551
2022-05-23T01:46:30,42.805,6.029,CST-1368DR,4736,5259,11838,01.108,551
2022-05-23T01:49:32,42.805,6.029,CST-1368DR,4736,5255,11830,01.111,551
2022-05-23T01:52:33,42.805,6.029,CST-1368DR,4736,5256,11831,01.110,551
2022-05-23T01:55:35,42.805,6.029,CST-1368DR,4736,5259,11839,01.108,551
2022-05-23T01:58:36,42.805,6.029,CST-1368DR,4736,5255,11829,01.111,551
2022-05-23T02:01:38,42.805,6.029,CST-1368DR,4736,5258,11837,01.108,551
2022-05-23T02:04:39,42.805,6.029,CST-1368DR,4736,5259,11837,01.108,551
2022-05-23T02:07:41,42.805,6.029,CST-1368DR,4736,5260,11840,01.107,551
2022-05-23T02:10:43,42.805,6.029,CST-1368DR,4736,5261,11843,01.106,551
2022-05-23T02:13:44,42.805,6.029,CST-1368DR,4736,5267,11857,01.102,551
2022-05-23T02:16:46,42.805,6.029,CST-1368DR,4736,5257,11834,01.109,551
2022-05-23T02:19:47,42.805,6.029,CST-1368DR,4736,5257,11833,01.110,551
2022-05-23T02:22:49,42.805,6.029,CST-1368DR,4736,5255,11829,01.111,551
2022-05-23T02:25:51,42.805,6.029,CST-1368DR,4736,5257,11834,01.109,551
2022-05-23T02:28:52,42.805,6.029,CST-1368DR,4736,5268,11857,01.102,551
2022-05-23T02:31:54,42.805,6.029,CST-1368DR,4736,5259,11838,01.108,551
2022-05-23T02:34:55,42.805,6.029,CST-1368DR,4736,5250,11819,01.114,551
2022-05-23T02:37:57,42.805,6.029,CST-1368DR,4736,5260,11841,01.107,551
2022-05-23T02:40:58,42.805,6.029,CST-1368DR,4736,5258,11835,01.109,551
2022-05-23T02:44:00,42.805,6.029,CST-1368DR,4736,5238,11791,01.124,551
2022-05-23T02:47:02,42.805,6.029,CST-1368DR,4736,5255,11829,01.111,551
2022-05-23T02:50:03,42.805,6.029,CST-1368DR,4736,5258,11836,01.109,551
2022-05-23T02:53:05,42.805,6.029,CST-1368DR,4736,5250,11818,01.115,551
2022-05-23T02:56:06,42.805,6.029,CST-1368DR,4736,5250,11819,01.114,551
2022-05-23T02:59:08,42.805,6.029,CST-1368DR,4736,5249,11816,01.115,551
2022-05-23T03:02:09,42.805,6.029,CST-1368DR,4736,5247,11811,01.117,551
2022-05-23T03:05:11,42.805,6.029,CST-1368DR,4736,5247,11810,01.117,551
2022-05-23T03:08:13,42.805,6.029,CST-1368DR,4736,5250,11817,01.115,551
2022-05-23T03:11:14,42.805,6.029,CST-1368DR,4736,5249,11816,01.115,551
2022-05-23T03:14:16,42.805,6.029,CST-1368DR,4736,5247,11810,01.117,551
2022-05-23T03:17:17,42.805,6.029,CST-1368DR,4736,5250,11817,01.115,551
2022-05-23T03:20:19,42.805,6.029,CST-1368DR,4736,5250,11818,01.115,551
2022-05-23T03:23:21,42.805,6.029,CST-1368DR,4736,5247,11810,01.117,551
2022-05-23T03:26:22,42.805,6.029,CST-1368DR,4736,5255,11829,01.111,551
2022-05-23T03:29:24,42.805,6.029,CST-1368DR,4736,5258,11837,01.108,551
2022-05-23T03:32:25,42.805,6.029,CST-1368DR,4736,5260,11841,01.107,551
2022-05-23T03:35:27,42.805,6.029,CST-1368DR,4736,5250,11817,01.115,551
2022-05-23T03:38:28,42.805,6.029,CST-1368DR,4736,5260,11840,01.107,551
2022-05-23T03:41:30,42.805,6.029,CST-1368DR,4736,5249,11816,01.115,551
2022-05-23T03:44:32,42.805,6.029,CST-1368DR,4736,5250,11817,01.115,551
2022-05-23T03:47:33,42.805,6.029,CST-1368DR,4736,5241,11797,01.122,551
2022-05-23T03:50:35,42.805,6.029,CST-1368DR,4736,5250,11817,01.115,551
2022-05-23T03:53:36,42.805,6.029,CST-1368DR,4736,5255,11829,01.111,551
2022-05-23T03:56:38,42.805,6.029,CST-1368DR,4736,5249,11816,01.115,551
2022-05-23T03:59:39,42.805,6.029,CST-1368DR,4736,5253,11825,01.112,551
2022-05-23T04:02:41,42.805,6.029,CST-1368DR,4736,5252,11823,01.113,551
2022-05-23T04:05:43,42.805,6.029,CST-1368DR,4736,5256,11832,01.110,551
2022-05-23T04:08:44,42.805,6.029,CST-1368DR,4736,5257,11833,01.110,551
2022-05-23T04:11:46,42.805,6.029,CST-1368DR,4736,5253,11825,01.112,551
2022-05-23T04:14:47,42.805,6.029,CST-1368DR,4736,5251,11820,01.114,551
2022-05-23T04:17:49,42.805,6.029,CST-1368DR,4736,5251,11819,01.114,551
2022-05-23T04:20:51,42.805,6.029,CST-1368DR,4736,5260,11839,01.108,551
2022-05-23T04:23:52,42.805,6.029,CST-1368DR,4736,5262,11846,01.105,551
2022-05-23T04:26:54,42.805,6.029,CST-1368DR,4736,5260,11839,01.108,551
2022-05-23T04:29:55,42.805,6.029,CST-1368DR,4736,5257,11834,01.109,551
2022-05-23T04:32:57,42.805,6.029,CST-1368DR,4736,5257,11833,01.110,551
2022-05-23T04:35:58,42.805,6.029,CST-1368DR,4736,5257,11833,01.110,551
2022-05-23T04:39:00,42.805,6.029,CST-1368DR,4736,5255,11830,01.111,551
2022-05-23T04:42:02,42.805,6.029,CST-1368DR,4736,5255,11829,01.111,551
2022-05-23T04:45:03,42.805,6.029,CST-1368DR,4736,5254,11827,01.112,551
2022-05-23T04:48:05,42.805,6.029,CST-1368DR,4736,5255,11829,01.111,551
2022-05-23T04:51:06,42.805,6.029,CST-1368DR,4736,5257,11833,01.110,551
2022-05-23T04:54:08,42.805,6.029,CST-1368DR,4736,5258,11836,01.109,551
2022-05-23T04:57:09,42.805,6.029,CST-1368DR,4736,5261,11842,01.107,551
2022-05-23T05:00:11,42.805,6.029,CST-1368DR,4736,5260,11841,01.107,551
2022-05-23T05:03:13,42.805,6.029,CST-1368DR,4736,5250,11817,01.115,551
2022-05-23T05:06:14,42.805,6.029,CST-1368DR,4736,5251,11819,01.114,551
2022-05-23T05:09:16,42.805,6.029,CST-1368DR,4736,5256,11832,01.110,551
2022-05-23T05:12:17,42.805,6.029,CST-1368DR,4736,5260,11839,01.108,551
2022-05-23T05:15:19,42.805,6.029,CST-1368DR,4736,5253,11824,01.113,551
2022-05-23T05:18:21,42.805,6.029,CST-1368DR,4736,5260,11841,01.107,551
2022-05-23T05:21:22,42.805,6.029,CST-1368DR,4736,5249,11815,01.116,551
2022-05-23T05:24:24,42.805,6.029,CST-1368DR,4736,5252,11821,01.114,551
2022-05-23T05:27:25,42.805,6.029,CST-1368DR,4736,5252,11823,01.113,551
2022-05-23T05:30:27,42.805,6.029,CST-1368DR,4736,5252,11822,01.113,551
2022-05-23T05:33:28,42.805,6.029,CST-1368DR,4736,5253,11824,01.113,551
2022-05-23T05:36:30,42.805,6.029,CST-1368DR,4736,5255,11829,01.111,551
2022-05-23T05:39:32,42.805,6.029,CST-1368DR,4736,5250,11819,01.114,551
2022-05-23T05:42:33,42.805,6.029,CST-1368DR,4736,5251,11819,01.114,551
2022-05-23T05:45:35,42.805,6.029,CST-1368DR,4736,5262,11845,01.106,551
2022-05-23T05:48:36,42.805,6.029,CST-1368DR,4736,5255,11829,01.111,551
2022-05-23T05:51:38,42.805,6.029,CST-1368DR,4736,5249,11815,01.116,551
2022-05-23T05:54:40,42.805,6.029,CST-1368DR,4736,5255,11829,01.111,551
2022-05-23T05:57:41,42.805,6.029,CST-1368DR,4736,5249,11815,01.116,551
2022-05-23T06:00:43,42.805,6.029,CST-1368DR,4736,5253,11824,01.113,551
2022-05-23T06:03:44,42.805,6.029,CST-1368DR,4736,5254,11826,01.112,551
2022-05-23T06:06:46,42.805,6.029,CST-1368DR,4736,5251,11820,01.114,551
2022-05-23T06:09:47,42.805,6.029,CST-1368DR,4736,5262,11846,01.105,551
2022-05-23T06:12:49,42.805,6.029,CST-1368DR,4736,5256,11830,01.111,551
2022-05-23T06:15:51,42.805,6.029,CST-1368DR,4736,5250,11817,01.115,551
2022-05-23T06:18:52,42.805,6.029,CST-1368DR,4736,5248,11814,01.116,551
2022-05-23T06:21:54,42.805,6.029,CST-1368DR,4736,5252,11823,01.113,551
2022-05-23T06:24:55,42.805,6.029,CST-1368DR,4736,5252,11823,01.113,551
2022-05-23T06:27:57,42.805,6.029,CST-1368DR,4736,5251,11821,01.114,551
2022-05-23T06:30:58,42.805,6.029,CST-1368DR,4736,5248,11813,01.116,551
2022-05-23T06:34:00,42.805,6.029,CST-1368DR,4736,5256,11831,01.110,551
2022-05-23T06:37:02,42.805,6.029,CST-1368DR,4736,5254,11826,01.112,551
2022-05-23T06:40:03,42.805,6.029,CST-1368DR,4736,5255,11830,01.111,551
2022-05-23T06:43:05,42.805,6.029,CST-1368DR,4736,5257,11833,01.110,551
2022-05-23T06:46:06,42.805,6.029,CST-1368DR,4736,5252,11822,01.113,551
2022-05-23T06:49:08,42.805,6.029,CST-1368DR,4736,5256,11832,01.110,551
2022-05-23T06:52:10,42.805,6.029,CST-1368DR,4736,5249,11816,01.115,551
2022-05-23T06:55:11,42.805,6.029,CST-1368DR,4736,5256,11832,01.110,551
2022-05-23T06:58:13,42.805,6.029,CST-1368DR,4736,5229,11770,01.131,551
2022-05-23T07:01:14,42.805,6.029,CST-1368DR,4736,5229,11770,01.131,551
2022-05-23T07:04:16,42.805,6.029,CST-1368DR,4736,5230,11772,01.130,551
2022-05-23T07:07:17,42.805,6.029,CST-1368DR,4736,5226,11763,01.133,551
2022-05-23T07:10:19,42.805,6.029,CST-1368DR,4736,5225,11762,01.134,551
2022-05-23T07:13:21,42.805,6.029,CST-1368DR,4736,5221,11752,01.137,551
2022-05-23T07:16:22,42.805,6.029,CST-1368DR,4736,5228,11769,01.131,551
2022-05-23T07:19:24,42.805,6.029,CST-1368DR,4736,5227,11766,01.132,551
2022-05-23T07:22:25,42.805,6.029,CST-1368DR,4736,5224,11760,01.134,551
2022-05-23T07:25:27,42.805,6.029,CST-1368DR,4736,5226,11764,01.133,551
2022-05-23T07:28:28,42.805,6.029,CST-1368DR,4736,5246,11810,01.117,551
2022-05-23T07:31:30,42.805,6.029,CST-1368DR,4736,5241,11797,01.122,551
2022-05-23T07:34:32,42.805,6.029,CST-1368DR,4736,5245,11806,01.119,551
2022-05-23T07:37:33,42.805,6.029,CST-1368DR,4736,5231,11775,01.129,551
2022-05-23T07:40:35,42.805,6.029,CST-1368DR,4736,5225,11761,01.134,551
2022-05-23T07:43:36,42.805,6.029,CST-1368DR,4736,5238,11791,01.124,551
2022-05-23T07:46:38,42.805,6.029,CST-1368DR,4736,5219,11749,01.138,551
2022-05-23T07:49:39,42.805,6.029,CST-1368DR,4736,5219,11747,01.139,551
2022-05-23T07:52:41,42.805,6.029,CST-1368DR,4736,5228,11768,01.132,551
2022-05-23T07:55:43,42.805,6.029,CST-1368DR,4736,5222,11754,01.136,551
2022-05-23T07:58:44,42.805,6.029,CST-1368DR,4736,5240,11796,01.122,551
2022-05-23T08:01:46,42.805,6.029,CST-1368DR,4736,5230,11772,01.130,551
2022-05-23T08:04:47,42.805,6.029,CST-1368DR,4736,5227,11765,01.133,551
2022-05-23T08:07:49,42.805,6.029,CST-1368DR,4736,5216,11742,01.140,551
2022-05-23T08:10:51,42.805,6.029,CST-1368DR,4736,5237,11788,01.125,551
2022-05-23T08:13:52,42.805,6.029,CST-1368DR,4736,5231,11775,01.129,551
2022-05-23T08:16:54,42.805,6.029,CST-1368DR,4736,5235,11783,01.127,551
2022-05-23T08:19:55,42.805,6.029,CST-1368DR,4736,5228,11769,01.131,551
2022-05-23T08:22:57,42.805,6.029,CST-1368DR,4736,5234,11781,01.127,551
2022-05-23T08:25:58,42.805,6.029,CST-1368DR,4736,5226,11765,01.133,551
2022-05-23T08:29:00,42.805,6.029,CST-1368DR,4736,5231,11775,01.129,551
2022-05-23T08:32:02,42.805,6.029,CST-1368DR,4736,5231,11775,01.129,551
2022-05-23T08:35:03,42.805,6.029,CST-1368DR,4736,5242,11800,01.121,551
2022-05-23T08:38:05,42.805,6.029,CST-1368DR,4736,5238,11792,01.123,551
2022-05-23T08:41:06,42.805,6.029,CST-1368DR,4736,5230,11772,01.130,551
2022-05-23T08:44:08,42.805,6.029,CST-1368DR,4736,5234,11783,01.127,551
2022-05-23T08:47:09,42.805,6.029,CST-1368DR,4736,5216,11742,01.140,551
2022-05-23T08:50:11,42.805,6.029,CST-1368DR,4736,5236,11785,01.126,551
2022-05-23T08:53:13,42.805,6.029,CST-1368DR,4736,5235,11783,01.127,551
2022-05-23T08:56:14,42.805,6.029,CST-1368DR,4736,5235,11784,01.126,551
2022-05-23T08:59:16,42.805,6.029,CST-1368DR,4736,5235,11784,01.126,551
2022-05-23T09:02:17,42.805,6.029,CST-1368DR,4736,5243,11803,01.120,551
2022-05-23T09:05:19,42.805,6.029,CST-1368DR,4736,5226,11765,01.133,551
2022-05-23T09:08:21,42.805,6.029,CST-1368DR,4736,5236,11785,01.126,551
2022-05-23T09:11:22,42.805,6.029,CST-1368DR,4736,5239,11793,01.123,551
2022-05-23T09:14:24,42.805,6.029,CST-1368DR,4736,5235,11784,01.126,551
2022-05-23T09:17:25,42.805,6.029,CST-1368DR,4736,5237,11789,01.125,551
2022-05-23T09:20:27,42.805,6.029,CST-1368DR,4736,5234,11783,01.127,551
2022-05-23T09:23:28,42.805,6.029,CST-1368DR,4736,5237,11788,01.125,551
2022-05-23T09:26:30,42.805,6.029,CST-1368DR,4736,5235,11784,01.126,551
2022-05-23T09:29:32,42.805,6.029,CST-1368DR,4736,5229,11770,01.131,551
2022-05-23T09:32:33,42.805,6.029,CST-1368DR,4736,5236,11785,01.126,551
2022-05-23T09:35:35,42.805,6.029,CST-1368DR,4736,5244,11803,01.120,551
2022-05-23T09:38:36,42.805,6.029,CST-1368DR,4736,5238,11791,01.124,551
2022-05-23T09:41:38,42.805,6.029,CST-1368DR,4736,5238,11792,01.123,551
2022-05-23T09:44:40,42.805,6.029,CST-1368DR,4736,5226,11765,01.133,551
2022-05-23T09:47:41,42.805,6.029,CST-1368DR,4736,5240,11796,01.122,551
2022-05-23T09:50:43,42.805,6.029,CST-1368DR,4736,5238,11790,01.124,551
2022-05-23T09:53:44,42.805,6.029,CST-1368DR,4736,5238,11792,01.123,551
2022-05-23T09:56:46,42.805,6.029,CST-1368DR,4736,5236,11787,01.125,551
2022-05-23T09:59:47,42.805,6.029,CST-1368DR,4736,5239,11793,01.123,551
2022-05-23T10:02:49,42.805,6.029,CST-1368DR,4736,5235,11784,01.126,551
2022-05-23T10:05:51,42.805,6.029,CST-1368DR,4736,5234,11781,01.127,551
2022-05-23T10:08:52,42.805,6.029,CST-1368DR,4736,5243,11802,01.120,551
2022-05-23T10:11:54,42.805,6.029,CST-1368DR,4736,5237,11788,01.125,551
2022-05-23T10:14:55,42.805,6.029,CST-1368DR,4736,5228,11769,01.131,551
2022-05-23T10:17:57,42.805,6.029,CST-1368DR,4736,5231,11775,01.129,551
2022-05-23T10:20:58,42.805,6.029,CST-1368DR,4736,5236,11787,01.125,551
2022-05-23T10:24:00,42.805,6.029,CST-1368DR,4736,5237,11788,01.125,551
2022-05-23T10:27:02,42.805,6.029,CST-1368DR,4736,5243,11802,01.120,551
2022-05-23T10:30:03,42.805,6.029,CST-1368DR,4736,5235,11784,01.126,551
2022-05-23T10:33:05,42.805,6.029,CST-1368DR,4736,5239,11792,01.123,551
2022-05-23T10:36:06,42.805,6.029,CST-1368DR,4736,5231,11775,01.129,551
2022-05-23T10:39:08,42.805,6.029,CST-1368DR,4736,5226,11765,01.133,551
2022-05-23T10:42:10,42.805,6.029,CST-1368DR,4736,5232,11778,01.128,551
2022-05-23T10:45:11,42.805,6.029,CST-1368DR,4736,5242,11801,01.120,551
2022-05-23T10:48:13,42.805,6.029,CST-1368DR,4736,5234,11781,01.127,551
2022-05-23T10:51:14,42.805,6.029,CST-1368DR,4736,5246,11808,01.118,551
2022-05-23T10:54:16,42.805,6.029,CST-1368DR,4735,5229,11773,01.130,551
2022-05-23T10:57:17,42.805,6.029,CST-1368DR,4735,5232,11780,01.128,551
2022-05-23T11:00:19,42.805,6.029,CST-1368DR,4736,5237,11788,01.125,551
2022-05-23T11:03:21,42.805,6.029,CST-1368DR,4736,5245,11806,01.119,551
2022-05-23T11:06:22,42.805,6.029,CST-1368DR,4736,5249,11815,01.116,551
2022-05-23T11:09:24,42.805,6.029,CST-1368DR,4735,5243,11804,01.119,551
2022-05-23T11:12:25,42.805,6.029,CST-1368DR,4736,5245,11806,01.119,551
2022-05-23T11:15:27,42.805,6.029,CST-1368DR,4736,5243,11803,01.120,551
2022-05-23T11:18:28,42.805,6.029,CST-1368DR,4736,5246,11808,01.118,551
2022-05-23T11:21:30,42.805,6.029,CST-1368DR,4735,5232,11780,01.128,551
2022-05-23T11:24:32,42.805,6.029,CST-1368DR,4735,5238,11792,01.123,551
2022-05-23T11:27:33,42.805,6.029,CST-1368DR,4735,5226,11766,01.132,551
2022-05-23T11:30:35,42.805,6.029,CST-1368DR,4735,5231,11778,01.128,551
2022-05-23T11:33:36,42.805,6.029,CST-1368DR,4735,5225,11764,01.133,551
2022-05-23T11:36:38,42.805,6.029,CST-1368DR,4735,5228,11770,01.131,551
2022-05-23T11:39:40,42.805,6.029,CST-1368DR,4735,5216,11744,01.140,551
2022-05-23T11:42:41,42.805,6.029,CST-1368DR,4735,5226,11765,01.133,551
2022-05-23T11:45:43,42.805,6.029,CST-1368DR,4735,5222,11756,01.136,551
2022-05-23T11:48:44,42.805,6.029,CST-1368DR,4736,5242,11799,01.121,551
2022-05-23T11:51:46,42.805,6.029,CST-1368DR,4736,5236,11787,01.125,551
2022-05-23T11:54:47,42.805,6.029,CST-1368DR,4735,5229,11773,01.130,551
2022-05-23T11:57:49,42.805,6.029,CST-1368DR,4735,5235,11786,01.126,551
2022-05-23T12:00:51,42.805,6.029,CST-1368DR,4735,5232,11780,01.128,551
2022-05-23T12:03:52,42.805,6.029,CST-1368DR,4735,5228,11770,01.131,551
2022-05-23T12:06:54,42.805,6.029,CST-1368DR,4736,5240,11796,01.122,551
2022-05-23T12:09:55,42.805,6.029,CST-1368DR,4735,5235,11787,01.125,551
2022-05-23T12:12:57,42.805,6.029,CST-1368DR,4735,5237,11790,01.124,551
2022-05-23T12:15:58,42.805,6.029,CST-1368DR,4735,5228,11770,01.131,551
2022-05-23T12:19:00,42.805,6.029,CST-1368DR,4736,5247,11812,01.117,551
2022-05-23T12:22:02,42.805,6.029,CST-1368DR,4735,5240,11798,01.121,551
2022-05-23T12:25:03,42.805,6.029,CST-1368DR,4735,5241,11800,01.121,551
2022-05-23T12:28:05,42.805,6.029,CST-1368DR,4735,5230,11775,01.129,551
2022-05-23T12:31:06,42.805,6.029,CST-1368DR,4735,5233,11782,01.127,551
2022-05-23T12:34:08,42.805,6.029,CST-1368DR,4735,5228,11771,01.131,551
2022-05-23T12:37:10,42.805,6.029,CST-1368DR,4736,5239,11792,01.123,551
2022-05-23T12:40:11,42.805,6.029,CST-1368DR,4735,5238,11794,01.123,551
2022-05-23T12:43:13,42.805,6.029,CST-1368DR,4735,5238,11793,01.123,551
2022-05-23T12:46:14,42.805,6.029,CST-1368DR,4735,5231,11777,01.129,551
2022-05-23T12:49:16,42.805,6.029,CST-1368DR,4735,5231,11777,01.129,551
2022-05-23T12:52:17,42.805,6.029,CST-1368DR,4735,5238,11792,01.123,551
2022-05-23T12:55:19,42.805,6.029,CST-1368DR,4736,5241,11798,01.121,551
2022-05-23T12:58:21,42.805,6.029,CST-1368DR,4735,5232,11779,01.128,551
2022-05-23T13:01:22,42.805,6.029,CST-1368DR,4735,5233,11781,01.127,551
2022-05-23T13:04:24,42.805,6.029,CST-1368DR,4735,5243,11805,01.119,551
2022-05-23T13:07:25,42.805,6.029,CST-1368DR,4735,5225,11763,01.133,550
2022-05-23T13:10:27,42.805,6.029,CST-1368DR,4735,5215,11742,01.140,551
2022-05-23T13:13:29,42.805,6.029,CST-1368DR,4735,5180,11663,01.167,551
2022-05-23T13:16:30,42.805,6.029,CST-1368DR,4735,5167,11634,01.177,551
2022-05-23T13:19:32,42.805,6.029,CST-1368DR,4735,5215,11742,01.140,551
2022-05-23T13:22:33,42.805,6.029,CST-1368DR,4735,5225,11763,01.133,551
2022-05-23T13:25:35,42.805,6.029,CST-1368DR,4735,5228,11771,01.131,551
2022-05-23T13:28:36,42.805,6.029,CST-1368DR,4735,5218,11749,01.138,551
2022-05-23T13:31:38,42.805,6.029,CST-1368DR,4735,5228,11770,01.131,551
2022-05-23T13:34:40,42.805,6.029,CST-1368DR,4735,5230,11775,01.129,551
2022-05-23T13:37:41,42.805,6.029,CST-1368DR,4735,5228,11771,01.131,551
2022-05-23T13:40:43,42.805,6.029,CST-1368DR,4735,5232,11779,01.128,551
2022-05-23T13:43:44,42.805,6.029,CST-1368DR,4735,5230,11774,01.130,551
2022-05-23T13:46:46,42.805,6.029,CST-1368DR,4735,5234,11785,01.126,551
2022-05-23T13:49:47,42.805,6.029,CST-1368DR,4735,5236,11789,01.125,551
2022-05-23T13:52:49,42.805,6.029,CST-1368DR,4735,5235,11786,01.126,551
2022-05-23T13:55:51,42.805,6.029,CST-1368DR,4735,5234,11783,01.127,551
2022-05-23T13:58:52,42.805,6.029,CST-1368DR,4735,5234,11784,01.126,551
2022-05-23T14:01:54,42.805,6.029,CST-1368DR,4735,5224,11762,01.134,551
2022-05-23T14:04:55,42.805,6.029,CST-1368DR,4735,5230,11776,01.129,551
2022-05-23T14:07:57,42.805,6.029,CST-1368DR,4735,5238,11794,01.123,551
2022-05-23T14:10:59,42.805,6.029,CST-1368DR,4735,5232,11780,01.128,551
2022-05-23T14:14:00,42.805,6.029,CST-1368DR,4735,5238,11794,01.123,551
2022-05-23T14:17:02,42.805,6.029,CST-1368DR,4735,5235,11787,01.125,551
2022-05-23T14:20:03,42.805,6.029,CST-1368DR,4735,5240,11797,01.122,551
2022-05-23T14:23:05,42.805,6.029,CST-1368DR,4735,5233,11782,01.127,551
2022-05-23T14:26:06,42.805,6.029,CST-1368DR,4735,5233,11783,01.127,551
2022-05-23T14:29:08,42.805,6.029,CST-1368DR,4735,5232,11780,01.128,551
2022-05-23T14:32:10,42.805,6.029,CST-1368DR,4735,5220,11752,01.137,551
2022-05-23T14:35:11,42.805,6.029,CST-1368DR,4735,5233,11782,01.127,551
2022-05-23T14:38:13,42.805,6.029,CST-1368DR,4735,5233,11781,01.127,551
2022-05-23T14:41:14,42.805,6.029,CST-1368DR,4735,5230,11775,01.129,551
2022-05-23T14:44:16,42.805,6.029,CST-1368DR,4735,5232,11779,01.128,551
2022-05-23T14:47:17,42.805,6.029,CST-1368DR,4735,5231,11778,01.128,551
2022-05-23T14:50:19,42.805,6.029,CST-1368DR,4735,5226,11767,01.132,551
2022-05-23T14:53:21,42.805,6.029,CST-1368DR,4735,5230,11775,01.129,551
2022-05-23T14:56:22,42.805,6.029,CST-1368DR,4735,5231,11778,01.128,551
2022-05-23T14:59:24,42.805,6.029,CST-1368DR,4735,5232,11780,01.128,551
2022-05-23T15:02:25,42.805,6.029,CST-1368DR,4735,5232,11780,01.128,551
2022-05-23T15:05:27,42.805,6.029,CST-1368DR,4735,5231,11777,01.129,551
2022-05-23T15:08:29,42.805,6.029,CST-1368DR,4735,5234,11784,01.126,551
2022-05-23T15:11:30,42.805,6.029,CST-1368DR,4735,5232,11780,01.128,551
2022-05-23T15:14:32,42.805,6.029,CST-1368DR,4735,5232,11780,01.128,551
2022-05-23T15:17:33,42.805,6.029,CST-1368DR,4735,5226,11765,01.133,551
2022-05-23T15:20:35,42.805,6.029,CST-1368DR,4735,5241,11799,01.121,551
2022-05-23T15:23:36,42.805,6.029,CST-1368DR,4735,5231,11777,01.129,551
2022-05-23T15:26:38,42.805,6.029,CST-1368DR,4735,5216,11744,01.140,551
2022-05-23T15:29:40,42.805,6.029,CST-1368DR,4735,5222,11757,01.135,551
2022-05-23T15:32:41,42.805,6.029,CST-1368DR,4735,5232,11779,01.128,551
2022-05-23T15:35:43,42.805,6.029,CST-1368DR,4735,5231,11778,01.128,551
2022-05-23T15:38:44,42.805,6.029,CST-1368DR,4735,5231,11778,01.128,551
2022-05-23T15:41:46,42.805,6.029,CST-1368DR,4735,5235,11787,01.125,551
2022-05-23T15:44:47,42.805,6.029,CST-1368DR,4735,5235,11787,01.125,551
2022-05-23T15:47:49,42.805,6.029,CST-1368DR,4735,5231,11778,01.128,551
2022-05-23T15:50:51,42.805,6.029,CST-1368DR,4735,5231,11778,01.128,551
2022-05-23T15:53:52,42.805,6.029,CST-1368DR,4735,5236,11789,01.125,551
2022-05-23T15:56:54,42.805,6.029,CST-1368DR,4735,5230,11776,01.129,551
2022-05-23T15:59:55,42.805,6.029,CST-1368DR,4735,5230,11775,01.129,551
2022-05-23T16:02:57,42.805,6.029,CST-1368DR,4735,5233,11782,01.127,551
2022-05-23T16:05:59,42.805,6.029,CST-1368DR,4735,5233,11782,01.127,551
2022-05-23T16:09:00,42.805,6.029,CST-1368DR,4735,5243,11804,01.119,551
2022-05-23T16:12:02,42.805,6.029,CST-1368DR,4735,5222,11757,01.135,551
2022-05-23T16:15:03,42.805,6.029,CST-1368DR,4735,5220,11752,01.137,551
2022-05-23T16:18:05,42.805,6.029,CST-1368DR,4735,5234,11785,01.126,551
2022-05-23T16:21:06,42.805,6.029,CST-1368DR,4735,5222,11756,01.136,551
2022-05-23T16:24:08,42.805,6.029,CST-1368DR,4735,5220,11752,01.137,551
2022-05-23T16:27:10,42.805,6.029,CST-1368DR,4735,5224,11762,01.134,551
2022-05-23T16:30:11,42.805,6.029,CST-1368DR,4735,5225,11763,01.133,551
2022-05-23T16:33:13,42.805,6.029,CST-1368DR,4735,5225,11764,01.133,551
2022-05-23T16:36:14,42.805,6.029,CST-1368DR,4735,5227,11769,01.131,551